Find Raduga-1

NORAD ID: 28194 Int'l Des: 2004-010 Owner: KVR Country: RU operational
HEOCIRCULAR

リアルタイム位置

3D地球を読み込み中...

Raduga-1について

説明を読み込み中...

次回通過

Passes for default location (London). Set your location on the main map for personalized predictions.

高度履歴

Loading altitude history...

軌道要素

1 28194U 04010A 26106.87708534 .00000125 00000-0 00000-0 0 9994
2 28194 13.6078 21.2521 0004636 247.5427 296.3625 1.00187909 80808
Epoch: Apr 16, 2026 • Age: 21 hours

現在のステータス

高度 35816.5 km
速度 3.07 km/s
衛星直下点 9.66°N, 44.9°E
打ち上げ日 Mar 27, 2004
運用期間 22 years
タイプ other

技術仕様

分類 Payload
質量 2500.00 kg
乾燥質量 2200.00 kg
総質量 2500.00 kg
長さ 5.00 m
直径 2.00 m
スパン 20.00 m
形状 Step Cyl + 2 Pan
製造者 NPOPMR
バスタイプ Globus
フェーズステータス In Orbit
所有者/国 KVR/RU

Most Searched